Time,TemperatureF,DewpointF,PressureIn,WindDirection,WindDirectionDegrees,WindSpeedMPH,WindSpeedGustMPH,Humidity,HourlyPrecipIn,Conditions,Clouds,dailyrainin,SoftwareType,DateUTC
2013-06-19 00:00:00,69.0,-99.9,-100.00,SE,139,3.0,5.0,-999,0.00,,,0.00,,2013-06-19 05:00:00,
2013-06-19 00:43:00,69.0,-99.9,-100.00,SE,139,3.0,5.0,-999,0.00,,,0.00,,2013-06-19 05:43:00,
2013-06-19 00:52:00,69.0,-99.9,-100.00,SE,139,3.0,5.0,-999,0.00,,,0.00,,2013-06-19 05:52:00,
2013-06-19 01:00:00,68.0,-99.9,-100.00,ESE,111,4.0,6.0,-999,0.00,,,0.00,,2013-06-19 06:00:00,
2013-06-19 01:43:00,68.0,-99.9,-100.00,ESE,111,4.0,6.0,-999,0.00,,,0.00,,2013-06-19 06:43:00,
2013-06-19 01:52:00,68.0,-99.9,-100.00,ESE,111,4.0,6.0,-999,0.00,,,0.00,,2013-06-19 06:52:00,
2013-06-19 02:00:00,66.0,-99.9,-100.00,SE,124,5.0,9.0,-999,0.00,,,0.00,,2013-06-19 07:00:00,
2013-06-19 02:44:00,66.0,-99.9,-100.00,SE,124,5.0,9.0,-999,0.00,,,0.00,,2013-06-19 07:44:00,
2013-06-19 02:54:00,66.0,-99.9,-100.00,SE,124,5.0,9.0,-999,0.00,,,0.00,,2013-06-19 07:54:00,
2013-06-19 03:00:00,66.0,-99.9,-100.00,SE,137,4.0,8.0,-999,0.00,,,0.00,,2013-06-19 08:00:00,
2013-06-19 03:43:00,66.0,-99.9,-100.00,SE,137,4.0,8.0,-999,0.00,,,0.00,,2013-06-19 08:43:00,
2013-06-19 03:54:00,66.0,-99.9,-100.00,SE,137,4.0,8.0,-999,0.00,,,0.00,,2013-06-19 08:54:00,
2013-06-19 04:00:00,64.0,-99.9,-100.00,SE,136,5.0,8.0,-999,0.00,,,0.00,,2013-06-19 09:00:00,
2013-06-19 04:44:00,64.0,-99.9,-100.00,SE,136,5.0,8.0,-999,0.00,,,0.00,,2013-06-19 09:44:00,
2013-06-19 04:53:00,64.0,-99.9,-100.00,SE,136,5.0,8.0,-999,0.00,,,0.00,,2013-06-19 09:53:00,
2013-06-19 05:00:00,63.0,-99.9,-100.00,SSE,154,5.0,8.0,-999,0.00,,,0.00,,2013-06-19 10:00:00,
2013-06-19 05:43:00,63.0,-99.9,-100.00,SSE,154,5.0,8.0,-999,0.00,,,0.00,,2013-06-19 10:43:00,
2013-06-19 05:53:00,63.0,-99.9,-100.00,SSE,154,5.0,8.0,-999,0.00,,,0.00,,2013-06-19 10:53:00,
2013-06-19 06:00:00,63.0,-99.9,-100.00,SSE,149,5.0,7.0,-999,0.00,,,0.00,,2013-06-19 11:00:00,
2013-06-19 06:43:00,63.0,-99.9,-100.00,SSE,149,5.0,7.0,-999,0.00,,,0.00,,2013-06-19 11:43:00,
2013-06-19 06:54:00,63.0,-99.9,-100.00,SSE,149,5.0,7.0,-999,0.00,,,0.00,,2013-06-19 11:54:00,
2013-06-19 07:00:00,64.0,-99.9,-100.00,SE,145,6.0,8.0,-999,0.00,,,0.00,,2013-06-19 12:00:00,
2013-06-19 07:44:00,64.0,-99.9,-100.00,SE,145,6.0,8.0,-999,0.00,,,0.00,,2013-06-19 12:44:00,
2013-06-19 07:53:00,64.0,-99.9,-100.00,SE,145,6.0,8.0,-999,0.00,,,0.00,,2013-06-19 12:53:00,
2013-06-19 08:00:00,66.0,-99.9,-100.00,SE,140,6.0,12.0,-999,0.00,,,0.00,,2013-06-19 13:00:00,
2013-06-19 08:43:00,66.0,-99.9,-100.00,SE,140,6.0,12.0,-999,0.00,,,0.00,,2013-06-19 13:43:00,
2013-06-19 08:54:00,66.0,-99.9,-100.00,SE,140,6.0,12.0,-999,0.00,,,0.00,,2013-06-19 13:54:00,
2013-06-19 09:00:00,68.0,-99.9,-100.00,SSE,153,6.0,13.0,-999,0.00,,,0.00,,2013-06-19 14:00:00,
2013-06-19 09:44:00,68.0,-99.9,-100.00,SSE,153,6.0,13.0,-999,0.00,,,0.00,,2013-06-19 14:44:00,
2013-06-19 09:53:00,68.0,-99.9,-100.00,SSE,153,6.0,13.0,-999,0.00,,,0.00,,2013-06-19 14:53:00,
2013-06-19 10:00:00,72.0,-99.9,-100.00,SSE,153,5.0,14.0,-999,0.00,,,0.00,,2013-06-19 15:00:00,
2013-06-19 10:43:00,72.0,-99.9,-100.00,SSE,153,5.0,14.0,-999,0.00,,,0.00,,2013-06-19 15:43:00,
2013-06-19 10:53:00,72.0,-99.9,-100.00,SSE,153,5.0,14.0,-999,0.00,,,0.00,,2013-06-19 15:53:00,
2013-06-19 11:00:00,75.0,-99.9,-100.00,SSE,147,5.0,15.0,-999,0.00,,,0.00,,2013-06-19 16:00:00,
2013-06-19 11:44:00,75.0,-99.9,-100.00,SSE,147,5.0,15.0,-999,0.00,,,0.00,,2013-06-19 16:44:00,
2013-06-19 11:53:00,75.0,-99.9,-100.00,SSE,147,5.0,15.0,-999,0.00,,,0.00,,2013-06-19 16:53:00,
2013-06-19 14:00:00,81.0,-99.9,-100.00,South,174,5.0,11.0,-999,0.00,,,0.00,,2013-06-19 19:00:00,
2013-06-19 14:44:00,81.0,-99.9,-100.00,South,174,5.0,11.0,-999,0.00,,,0.00,,2013-06-19 19:44:00,
2013-06-19 14:53:00,81.0,-99.9,-100.00,South,174,5.0,11.0,-999,0.00,,,0.00,,2013-06-19 19:53:00,
2013-06-19 15:00:00,80.0,-99.9,-100.00,SSE,150,7.0,14.0,-999,0.00,,,0.00,,2013-06-19 20:00:00,
2013-06-19 15:43:00,80.0,-99.9,-100.00,SSE,150,7.0,14.0,-999,0.00,,,0.00,,2013-06-19 20:43:00,
2013-06-19 15:52:00,80.0,-99.9,-100.00,SSE,150,7.0,14.0,-999,0.00,,,0.00,,2013-06-19 20:52:00,
2013-06-19 16:00:00,80.0,-99.9,-100.00,SSE,151,6.0,14.0,-999,0.00,,,0.00,,2013-06-19 21:00:00,
2013-06-19 16:44:00,80.0,-99.9,-100.00,SSE,151,6.0,14.0,-999,0.00,,,0.00,,2013-06-19 21:44:00,
2013-06-19 16:52:00,80.0,-99.9,-100.00,SSE,151,6.0,14.0,-999,0.00,,,0.00,,2013-06-19 21:52:00,
2013-06-19 17:00:00,80.0,-99.9,-100.00,South,174,5.0,11.0,-999,0.00,,,0.00,,2013-06-19 22:00:00,
2013-06-19 17:43:00,80.0,-99.9,-100.00,South,174,5.0,11.0,-999,0.00,,,0.00,,2013-06-19 22:43:00,
2013-06-19 17:54:00,80.0,-99.9,-100.00,South,174,5.0,11.0,-999,0.00,,,0.00,,2013-06-19 22:54:00,
2013-06-19 18:00:00,80.0,-99.9,-100.00,SSE,156,5.0,9.0,-999,0.00,,,0.00,,2013-06-19 23:00:00,
2013-06-19 18:43:00,80.0,-99.9,-100.00,SSE,156,5.0,9.0,-999,0.00,,,0.00,,2013-06-19 23:43:00,
2013-06-19 18:52:00,80.0,-99.9,-100.00,SSE,156,5.0,9.0,-999,0.00,,,0.00,,2013-06-19 23:52:00,
2013-06-19 20:00:00,77.0,-99.9,-100.00,SSE,149,6.0,12.0,-999,0.00,,,0.00,,2013-06-20 01:00:00,
2013-06-19 20:44:00,77.0,-99.9,-100.00,SSE,149,6.0,12.0,-999,0.00,,,0.00,,2013-06-20 01:44:00,
2013-06-19 20:53:00,77.0,-99.9,-100.00,SSE,149,6.0,12.0,-999,0.00,,,0.00,,2013-06-20 01:53:00,
2013-06-19 22:00:00,73.0,-99.9,-100.00,SSE,150,5.0,8.0,-999,0.00,,,0.00,,2013-06-20 03:00:00,
2013-06-19 22:43:00,73.0,-99.9,-100.00,SSE,150,5.0,8.0,-999,0.00,,,0.00,,2013-06-20 03:43:00,
2013-06-19 22:54:00,73.0,-99.9,-100.00,SSE,150,5.0,8.0,-999,0.00,,,0.00,,2013-06-20 03:54:00,
2013-06-19 23:00:00,72.0,-99.9,-100.00,SSE,151,5.0,7.0,-999,0.00,,,0.00,,2013-06-20 04:00:00,
2013-06-19 23:44:00,72.0,-99.9,-100.00,SSE,151,5.0,7.0,-999,0.00,,,0.00,,2013-06-20 04:44:00,
2013-06-19 23:54:00,72.0,-99.9,-100.00,SSE,151,5.0,7.0,-999,0.00,,,0.00,,2013-06-20 04:54:00,